Rbgn^[z[y[W
メイン
   新天体発見情報
     Comet P/2019 G1 = P/2011 O2 (PANSTARRS)
投稿するにはまず登録を

フラット表示 前のトピック | 次のトピック
投稿者 スレッド
佐藤裕久
投稿日時: 2019-4-22 7:32
モデレータ
登録日: 2005-6-12
居住地: 日本
投稿: 2505
オンライン
Comet P/2019 G1 = P/2011 O2 (PANSTARRS)

Rob Weryk (ハワイ大学天文学研究所)の通報によると、4月3.5日UT、Haleakalaにある1.8-m Pan-
STARRS1望遠鏡で得た4枚のw-バンドCCD画像から、彗星を発見した。西に向かって約5"伸びた尾に
注目し、彗星の頭部は近傍の恒星より大きくFWHM (半値全幅)は約1".4対1".0であった。
R. WainscoatとWeryは、4.6日、Mauna Keaにある3.6-m Canada-France-Hawaii望遠鏡で得たMegaCam 
CCDイメージから確認した。p.a. 280°に少なくとも20"に伸びた「いい感じの」尾が見えた。
彗星の頭部のFWHM (半値全幅)は近傍の恒星と比べ約1".5対1".0で、測定光度は19.3等であった。
Werykはその後、発見前の画像を確認した。2019年2月9日は、p.a. 300°に6"の尾が見え、2011年7月
と8月、そして2018年1月、2月と3月は彗星は恒星状の外観であった。
2011年の観測にP/2011 O2の符号がつけられた。
G. V. Williams (小惑星センター)は、2009年2月26日、T. H. Bressiが得たKitt Peakにある1.8-m 
Spacewatch IIと、2009年3月25日、紫金山天文台 XuYi観測所の1.04-m Schmidt望遠鏡による追加
発見前観測(恒星状)を同定した。

小惑星センターのPCCP webpageに公表後、佐藤英貴氏(東京都文京区, iTelescope 天文台, 0.43-m
f/6.8 アストログラフ, Mayhill近郊, ニューメキシコ州, 遠隔操作、4月4.48日UT、60秒露出10枚の
スタックで、強く集光した8"のコマとp.a. 280°に8"の尾が見えた。5".7の円形範囲で測定した光度
は18.9等であった)によって彗星と観測された。

発見位置は次のとおり、

     2019 UT             R.A. (2000) Decl.       Mag.
     Apr.  3.50620   14 33 34.94   - 2 57 03.0   19.9
           3.51791   14 33 34.65   - 2 56 59.7   20.0
           3.52961   14 33 34.36   - 2 56 56.5   20.0
           3.54128   14 33 34.06   - 2 56 53.2   20.1

     2011 UT             R.A. (2000) Decl.       Mag.
     July 27.47893   22 26 29.01   -12 29 20.2   22.9
          27.50832   22 26 28.23   -12 29 27.6   22.6
          27.52306   22 26 27.84   -12 29 30.6   23.4
     Aug. 30.41960   22 08 29.02   -14 52 21.5   22.6
          30.43435   22 08 28.49   -14 52 24.9   23.1
          30.44908   22 08 28.03   -14 52 28.6   23.8

連結軌道要素と位置推算表は次のとおり、

Orbital elements:
    P/2019 G1 (PANSTARRS)
Epoch 2009 Oct. 16.0 TT = JDT 2455120.5
T 2009 Oct. 13.75380 TT                                 MPCW
q   3.0623936            (2000.0)            P               Q
n   0.10184970     Peri.   90.02742     -0.72208293     +0.68386945
a   4.5411188      Node   133.11962     -0.67792596     -0.66937169
e   0.3256302      Incl.    8.23047     -0.13788627     -0.29028282
P   9.68
From 123 observations 2009 Feb. 26-2019 Apr. 9, mean residual 0".5.

    P/2019 G1 (PANSTARRS)
Epoch 2019 June 6.0 TT = JDT 2458640.5
T 2019 June 6.92064 TT                                  MPCW
q   3.0496479            (2000.0)            P               Q
n   0.10218484     Peri.   90.06881     -0.72177761     +0.68418151
a   4.5311845      Node   133.10317     -0.67823544     -0.66906204
e   0.3269645      Incl.    8.23353     -0.13796293     -0.29026136
P   9.65
From 123 observations 2009 Feb. 26-2019 Apr. 9, mean residual 0".5.

    P/2019 G1 (PANSTARRS)
Epoch 2028 Aug. 17.0 TT = JDT 2462000.5
T 2028 Aug. 3.19661 TT                                  MPCW
q   2.9964910            (2000.0)            P               Q
n   0.10415460     Peri.   86.18670     -0.82390794     +0.55580008
a   4.4738740      Node   127.54353     -0.55942539     -0.76636447
e   0.3302246      Incl.    8.02808     -0.09065840     -0.32213625
P   9.46
From 123 observations 2009 Feb. 26-2019 Apr. 9, mean residual 0".5.

    P/2019 G1 (PANSTARRS)
Epoch 2019 Apr. 27.0 TT = JDT 2458600.5
T 2019 June 6.92532 TT                                  MPCW
q   3.0496481            (2000.0)            P               Q
n   0.10221553     Peri.   90.06586     -0.72176820     +0.68419234
a   4.5302775      Node   133.10694     -0.67824478     -0.66905565
e   0.3268297      Incl.    8.23357     -0.13796624     -0.29025054
P   9.64
From 123 observations 2009 Feb. 26-2019 Apr. 9, mean residual 0".5.

Ephemeris:
    P/2019 G1 (PANSTARRS)
Date    TT    R. A. (2000) Decl.     Delta      r     Elong.  Phase   m1
2019 03 10    14 37 38.3 -04 38 20   2.3612  3.0902   129.6    14.3  19.3
...
2019 03 25    14 36 31.6 -03 39 53   2.2125  3.0778   144.3    10.9  19.1
...
2019 04 02    14 34 09.2 -03 03 57   2.1522  3.0721   152.2     8.7  19.0
...
2019 04 08    14 31 40.4 -02 36 19   2.1171  3.0682   158.0     7.0  19.0
2019 04 09    14 31 12.6 -02 31 44   2.1121  3.0676   158.9     6.7  19.0
2019 04 10    14 30 44.0 -02 27 10   2.1074  3.0670   159.8     6.5  19.0
...
2019 04 16    14 27 38.3 -02 00 26   2.0846  3.0636   164.6     5.0  19.0
...
2019 04 24    14 23 04.0 -01 27 50   2.0691  3.0597   167.9     3.9  18.9
...
2019 05 09    14 14 15.6 -00 43 04   2.0865  3.0540   159.9     6.5  18.9

     In the discovery images on 2019 Apr. 3, R. Weryk (F51) described this
object as a comet, it having a ~1".4 FWHM (compared to 0".95 +/- 0".07 for
nearby stars) and a ~5" towards the west.  Followup observations by Weryk and
R. Wainscoat on Apr. 4 (568) showed a 1".48 FWHM (compared to 1".02 +/- 0".04
for nearby stars) and a tail extending for at least 20" in P.A. 280.  H. Sato
(H06, Apr. 4) reported an 8" coma and an 8" tail in P.A. 280 in ten stacked
60-s exposures.  K. Korlevic (L01, Apr. 6) described a 12" tail in P.A. 279.
Weryk also reported prediscovery images from 2019 Feb. 9 (6" tail towards P.A.
300), 2018 (stellar) and 2011 (stellar).  The undersigned then located
additional prediscovery images from 2009.

(CBET 4618、MPEC 2019-G123)


フラット表示 前のトピック | 次のトピック

題名 投稿者 日時
 » Comet P/2019 G1 = P/2011 O2 (PANSTARRS) 佐藤裕久 2019-4-22 7:32

投稿するにはまず登録を
 
© 1999 Tsutomu Seki.